TimeMST,TemperatureF,Dew PointF,Humidity,Sea Level PressureIn,VisibilityMPH,Wind Direction,Wind SpeedMPH,Gust SpeedMPH,PrecipitationIn,Events,Conditions,WindDirDegrees,DateUTC
12:58 AM,79.9,55.8,43,29.82,10.0,SE,19.6,25.3,,,Clear,130,2013-07-03 07:58:00
1:58 AM,81.3,53.1,37,29.81,10.0,SSE,12.7,-,,,Scattered Clouds,150,2013-07-03 08:58:00
2:58 AM,80.6,53.4,39,29.79,10.0,ESE,16.1,-,,,Clear,120,2013-07-03 09:58:00
3:58 AM,78.4,55.6,45,29.79,10.0,ESE,13.8,-,,,Clear,110,2013-07-03 10:58:00
4:58 AM,77.2,55.8,47,29.81,10.0,ESE,12.7,-,,,Clear,120,2013-07-03 11:58:00
5:58 AM,78.4,54.3,43,29.83,10.0,ESE,9.2,-,,,Partly Cloudy,120,2013-07-03 12:58:00
6:58 AM,82.9,53.8,36,29.83,10.0,ESE,12.7,-,,,Partly Cloudy,110,2013-07-03 13:58:00
7:58 AM,86.0,53.4,33,29.83,10.0,East,18.4,-,,,Clear,100,2013-07-03 14:58:00
8:58 AM,89.1,53.4,30,29.82,10.0,South,6.9,-,,,Clear,180,2013-07-03 15:58:00
9:58 AM,93.0,50.7,24,29.83,10.0,SSE,4.6,-,0.56,,Clear,160,2013-07-03 16:58:00
10:27 AM,93.2,50.0,23,29.95,10.0,South,12.7,-,N/A,,Light Drizzle,190,2013-07-03 17:27:00
10:49 AM,93.2,51.8,24,29.95,10.0,Variable,4.6,-,N/A,,Partly Cloudy,0,2013-07-03 17:49:00
10:58 AM,94.3,51.4,23,29.81,10.0,SSW,8.1,-,0.00,,Partly Cloudy,200,2013-07-03 17:58:00
11:58 AM,96.4,49.8,21,29.79,10.0,North,6.9,-,N/A,,Clear,10,2013-07-03 18:58:00
12:58 PM,99.0,50.5,19,29.76,10.0,NNE,5.8,-,N/A,,Clear,20,2013-07-03 19:58:00
1:58 PM,100.8,50.7,19,29.74,10.0,WNW,8.1,-,N/A,,Clear,300,2013-07-03 20:58:00
2:58 PM,100.8,50.5,18,29.70,10.0,Variable,6.9,-,N/A,,Clear,0,2013-07-03 21:58:00
3:58 PM,103.1,51.1,17,29.67,10.0,NW,11.5,-,N/A,,Partly Cloudy,320,2013-07-03 22:58:00
4:23 PM,102.2,50.0,17,29.81,10.0,NNW,15.0,23.0,N/A,,Clear,340,2013-07-03 23:23:00
4:47 PM,102.2,50.0,17,29.79,10.0,NNW,15.0,23.0,N/A,,Clear,330,2013-07-03 23:47:00
4:58 PM,102.4,51.6,18,29.64,10.0,NW,16.1,23.0,N/A,,Clear,310,2013-07-03 23:58:00
5:46 PM,102.2,51.8,18,29.77,10.0,NW,13.8,-,N/A,,Clear,310,2013-07-04 00:46:00
5:58 PM,101.8,50.2,18,29.62,10.0,NNW,11.5,-,N/A,,Clear,330,2013-07-04 00:58:00
6:58 PM,100.2,50.2,18,29.64,10.0,NNW,10.4,-,N/A,,Clear,340,2013-07-04 01:58:00
7:58 PM,98.8,50.5,20,29.65,10.0,NNW,15.0,-,N/A,,Mostly Cloudy,330,2013-07-04 02:58:00
8:58 PM,97.0,48.9,19,29.65,10.0,NNW,8.1,-,N/A,,Clear,330,2013-07-04 03:58:00
9:58 PM,94.8,45.7,18,29.66,10.0,WNW,6.9,-,N/A,,Clear,290,2013-07-04 04:58:00
10:58 PM,92.5,48.2,22,29.69,10.0,West,5.8,-,N/A,,Clear,260,2013-07-04 05:58:00
11:58 PM,90.1,50.4,26,29.69,10.0,SW,5.8,-,N/A,,Clear,230,2013-07-04 06:58:00